Regional Weather Roundup
Issued by NWS

Home | Current Version | Previous Version | Graphics & Text | Print | Product List | Glossary On
Versions: 1 2 3 4 5 6 7 8 9 10 11 12 13 14 15 16 17 18 19 20 21 22 23 24 25 26 27 28 29 30 31 32 33 34 35 36 37 38 39 40 41 42 43 44 45 46 47 48 49 50
000
ASUS43 KTOP 311559
RWRKS

WEATHER ROUNDUP FOR KANSAS
NATIONAL WEATHER SERVICE GOODLAND KS
1100 AM CDT MON AUG 31 2015

NOTE:  "FAIR" INDICATES FEW OR NO CLOUDS BELOW 12,000 FEET WITH NO
SIGNIFICANT WEATHER AND/OR OBSTRUCTIONS TO VISIBILITY.

KSZ001>006-013>018-027>032-041>047-311700-
NORTHWEST KANSAS

CITY           SKY/WX    TMP DP  RH WIND       PRES   REMARKS
GOODLAND       SUNNY     81  52  36 NW6       29.98S
HAYS           SUNNY     81  61  50 S12       29.94F
HILL CITY      SUNNY     81  61  50 SW9       29.94S
RUSSELL        SUNNY     82  64  54 S15       29.93F
$$

KSZ061>065-074>080-084>089-311700-
SOUTHWEST KANSAS

CITY           SKY/WX    TMP DP  RH WIND       PRES   REMARKS
DODGE CITY     SUNNY     82  54  37 S15       29.97S
ELKHART          N/A     81  53  37 S12         N/A
GARDEN CITY    SUNNY     81  56  42 S12       29.95S
GREAT BEND     SUNNY     81  64  57 S14       29.95S
LIBERAL        SUNNY     84  57  39 SW15G22   29.99S
PRATT          SUNNY     79  63  57 CALM      29.98S
$$

KSZ066>073-081>083-090>101-311700-
SOUTHEAST KANSAS

CITY           SKY/WX    TMP DP  RH WIND       PRES   REMARKS
CHANUTE        SUNNY     80  68  66 S7        30.01S
COFFEYVILLE    SUNNY     80  70  71 S8        30.01S
HUTCHINSON     SUNNY     81  68  64 SE10      29.97S
NEWTON         SUNNY     81  66  61 S9        30.01R
PARSONS        SUNNY     79  70  74 S9        30.02S
WICHITA INTL   MOSUNNY   80  67  64 S9        29.97S
WICHITA JABRA  SUNNY     79  68  69 S9        29.98S
WINFIELD       SUNNY     82  66  58 S10       30.00R
$$

KSZ007>012-019>026-033>040-048>060-102>105-311700-
NORTHEAST KANSAS

CITY           SKY/WX    TMP DP  RH WIND       PRES   REMARKS
CONCORDIA      SUNNY     79  70  74 S13       29.96S
EMPORIA        SUNNY     80  70  71 SE10      29.99S
LAWRENCE       SUNNY     82  71  69 S6        30.00R
MANHATTAN      SUNNY     83  70  64 SE9       29.97S
OLATHE IND     SUNNY     80  71  74 S8        30.02S
OLATHE EXE     SUNNY     79  70  74 SW7       30.01R
SALINA         SUNNY     85  68  56 SE15      29.95S
TOPEKA BILLARD SUNNY     81  72  74 SE6       29.99S
TOPEKA FORBES  SUNNY     82  72  71 SE6       30.00S
$$


USA.gov is the U.S. government's official web portal to all federal, state and local government web resources and services.